Flag for Canada Weather past 2 weeks in Belleville, Ontario, Canada

Now
52 °F

Passing clouds.


Feels Like: 52 °F
Forecast: 50 / 72 °F
Wind: No wind

Location: Trenton

Current Time: Aug 29, 2014 at 8:31:33 AM

Latest Report: Aug 29, 2014 at 7:00 AM


Visibility: 15 mi

Pressure: 30.19 "Hg

Humidity: 94%

Dew point: 50 °F

Location of BellevilleLocation

Historic Weather in Belleville — Graph

°F

Belleville temperature yesterday

Maximum temperature yesterday: 72 °F (at 4:00 PM)
Minimum temperature yesterday: 55 °F (at 7:00 AM)
Average temperature yesterday: 63 °F

Past Weeks' High & Low Weather Summary

 TemperatureHumidityPressure
High81 °F (Aug 26, 4:00 PM)100% (Aug 15, 2:00 AM)30.21 "Hg (Aug 15, 2:00 AM)
Low48 °F (Aug 19, 5:00 AM)44% (Aug 19, 6:00 PM)29.78 "Hg (Aug 16, 6:00 PM)
Average65 °F82%29.98 "Hg
* Reported Aug 14 7:00 AM — Aug 29 7:00 AM, Belleville, Weather by CustomWeather, © 2014

Note: Actual official high and low records may vary slightly from our data, if they occured in-between our weather recording intervals... More about our weather records

Advertising

Belleville weather history for previous 24 hours

 ConditionsComfort  
Time TempWeatherWind HumidityBarometerVisibility
7:00 AM
Aug 29
52 °FPassing clouds.No wind94%30.19 "Hg15 mi
6:00 AM52 °FPassing clouds.No wind94%30.17 "Hg15 mi
5:00 AM52 °FPassing clouds.No wind94%30.16 "Hg15 mi
4:00 AM52 °FPassing clouds.2 mph94%30.15 "Hg15 mi
3:00 AM54 °FPassing clouds.No wind88%30.15 "Hg15 mi
2:00 AM54 °FPassing clouds.2 mph94%30.15 "Hg15 mi
1:00 AM54 °FPassing clouds.3 mph94%30.15 "Hg15 mi
12:00 AM54 °FPassing clouds.2 mph94%30.14 "Hg15 mi
11:00 PM
Aug 28
57 °FPassing clouds.2 mph82%30.13 "Hg15 mi
10:00 PM59 °FPassing clouds.5 mph77%30.11 "Hg15 mi
9:00 PM61 °FPassing clouds.2 mph77%30.09 "Hg15 mi
8:00 PM63 °FScattered clouds.3 mph73%30.06 "Hg15 mi
7:00 PM68 °FScattered clouds.6 mph53%30.05 "Hg15 mi
6:00 PM72 °FPartly sunny.6 mph50%30.04 "Hg15 mi
5:00 PM72 °FPartly sunny.8 mph47%30.03 "Hg15 mi
4:00 PM72 °FPartly sunny.12 mph47%30.03 "Hg15 mi
3:00 PM70 °FScattered clouds.9 mph50%30.03 "Hg15 mi
2:00 PM70 °FPassing clouds.10 mph50%30.03 "Hg15 mi
1:00 PM70 °FScattered clouds.8 mph50%30.03 "Hg15 mi
12:00 PM68 °FScattered clouds.12 mph56%30.04 "Hg15 mi
11:00 AM66 °FScattered clouds.16 mph60%30.04 "Hg15 mi
10:00 AM63 °FScattered clouds.15 mph73%30.04 "Hg15 mi
9:00 AM61 °FPassing clouds.12 mph77%30.03 "Hg15 mi
8:00 AM57 °FPassing clouds.5 mph94%30.03 "Hg15 mi
Weather by CustomWeather, © 2014

See weather overviewHow to use our weather pages